This demonstration page uses our WeatherBlox Daily Observations layout. Learn more.

Left ArrowRight Arrow

39.08367, -84.50855

Hourly Observations for May 23, 2017

Temp ( °F °C ) Dew Point ( °F °C ) Humidity (%) Winds ( mph kmh ) Pressure ( in mb ) Visibility ( mi km ) Precip ( " mm )
12:53 am 00:53 Clear 51 10.6 51 10.6 100 100 N N/A 30 1016 10 16.0934 N/A
1:53 am 01:53 Clear 51 10.6 51 10.6 100 100 N N/A 29.98 1015 10 16.0934 N/A
2:53 am 02:53 Clear 51 10.6 51 10.6 100 100 N N/A 29.96 1015 10 16.0934 N/A
3:53 am 03:53 Clear 50 10 50 10 100 100 N N/A 29.93 1014 7 11.26538 N/A
4:10 am 04:10 Clear with Mist and Fog 50 10 50 10 100 100 N N/A 29.94 1014 2 3.21868 N/A
4:20 am 04:20 Clear 50 10 50 10 100 100 N N/A 29.94 1014 10 16.0934 N/A
4:53 am 04:53 Clear 50 10 50 10 100 100 N N/A 29.92 1013 9 14.48406 N/A
5:53 am 05:53 Clear with Mist and Fog 48 8.9 48 8.9 100 100 N N/A 29.89 1012 2 3.21868 N/A
6:15 am 06:15 Clear with Mist and Fog 48 8.9 48 8.9 100 100 NE 3 6 29.94 1014 1.25 2.011675 N/A
6:30 am 06:30 Sunny with Mist and Fog 48 8.9 48 8.9 100 100 S 3 6 29.94 1014 3 4.82802 N/A
6:41 am 06:41 Sunny with Mist and Fog 46 7.8 46 7.8 100 100 S 3 6 29.94 1014 2 3.21868 N/A
6:50 am 06:50 Sunny with Patchy Fog 46 8 46 8 100 100 N N/A 29.94 1014 7 11.26538 N/A
6:53 am 06:53 Sunny with Patchy Fog 47 8.3 47 8.3 100 100 N N/A 29.91 1013 7 11.26538 N/A
7:13 am 07:13 Partly Cloudy with Patchy Fog 49 9.4 49 9.4 100 100 N N/A 29.94 1014 2.5 4.02335 N/A
7:15 am 07:15 Mostly Cloudy with Patchy Fog 49 9.4 49 9.4 100 100 N N/A 29.94 1014 1 1.60934 N/A
7:19 am 07:19 Mostly Cloudy with Patchy Fog 50 10 50 10 100 100 N N/A 29.94 1014 0.25 0.402335 N/A
7:28 am 07:28 Sunny with Patchy Fog 51 10.6 51 10.6 100 100 N N/A 29.94 1014 2 3.21868 N/A
7:53 am 07:53 Partly Cloudy with Patchy Fog 53 11.7 52 11.1 96 96 N N/A 29.91 1013 10 16.0934 N/A
8:53 am 08:53 Sunny 57 13.9 54 12.2 90 90 ENE 5 7 29.87 1012 10 16.0934 N/A
9:53 am 09:53 Sunny 64 17.8 55 12.8 73 73 NE 7 11 29.85 1011 10 16.0934 N/A
10:53 am 10:53 Sunny 67 19.4 53 11.7 61 61 E 9 15 29.83 1010 10 16.0934 N/A
11:53 am 11:53 Sunny 71 21.7 53 11.7 53 53 NNE 8 13 29.8 1009 10 16.0934 N/A
12:53 pm 12:53 Sunny 73 22.8 52 11.1 48 48 NNE 8 13 29.77 1008 10 16.0934 N/A
1:53 pm 13:53 Sunny 74 23.3 53 11.7 48 48 S 6 9 29.75 1007 10 16.0934 N/A
2:53 pm 14:53 Sunny 75 23.9 53 11.7 46 46 VRB 3 6 29.72 1006 10 16.0934 N/A
3:53 pm 15:53 Sunny 76 24.4 54 12.2 47 47 N N/A 29.69 1005 10 16.0934 N/A
4:53 pm 16:53 Mostly Cloudy 75 23.9 52 11.1 45 45 S 7 11 29.67 1005 10 16.0934 N/A
5:53 pm 17:53 Mostly Cloudy 73 22.8 55 12.8 53 53 S 8 13 29.67 1005 10 16.0934 N/A
6:53 pm 18:53 Sunny 72 22.2 54 12.2 53 53 SSE 6 9 29.65 1004 10 16.0934 N/A
7:53 pm 19:53 Mostly Sunny 70 21.1 59 15 68 68 SSE 3 6 29.65 1004 10 16.0934 N/A
8:53 pm 20:53 Mostly Clear 67 19.4 59 15 76 76 N N/A 29.64 1004 10 16.0934 N/A
9:53 pm 21:53 Mostly Clear 63 17.2 59 15 87 87 N N/A 29.64 1004 10 16.0934 N/A
10:53 pm 22:53 Clear 64 17.8 59 15 84 84 N N/A 29.64 1004 10 16.0934 N/A
11:53 pm 23:53 Partly Cloudy 64 17.8 60 15.6 87 87 S 6 9 29.62 1003 10 16.0934 N/A

Powered by AerisWeather